Theta_e
312 311 310 309 310 310 308 304 301 304 303 304 298 302 304 305 304 301 299 294 297 298 298 299 300 300 301 302 305 304 305 306 307 309 308 310 310 310 310 310 310 313 314 314 314 315 316 313 313 313 313 312 311 312
312 311 310 309 309 310 308 304 299 302 302 302 298 302 304 304 304 298 298 296 295 297 299 299 299 300 300 300 301 302 304 305 305 308 308 309 310 310 309 310 310 312 312 313 313 314 312 311 311 310 310 310 312 311
312 312 312 310 309 308 308 306 303 300 302 301 300 301 303 304 303 299 297 298 296 298 300 301 302 301 300 300 300 302 304 304 305 306 307 308 309 308 311 311 310 310 309 311 312 312 311 310 310 310 310 310 309 308
313 312 311 311 310 308 307 307 307 301 301 301 301 302 302 303 303 299 297 298 297 298 300 303 299 300 301 301 301 301 301 303 303 305 306 308 308 307 310 310 309 309 309 311 313 311 308 308 308 309 310 309 307 306
312 311 311 310 311 309 307 307 307 304 301 301 300 301 303 302 302 300 297 297 297 300 303 302 301 302 301 301 301 301 301 301 303 303 305 308 308 308 308 308 309 310 310 309 310 306 305 307 309 310 308 307 306 305
311 311 311 311 311 309 307 306 306 305 301 300 300 300 303 302 301 298 298 298 299 298 299 303 303 302 302 302 303 303 302 300 303 303 304 306 307 307 310 310 310 307 306 304 302 304 306 309 309 308 306 306 305 306
311 311 311 311 311 309 307 306 305 305 302 300 300 300 302 300 300 296 299 300 300 299 299 301 305 304 303 304 306 303 301 301 302 303 305 307 308 306 308 310 306 304 301 303 307 310 310 309 308 306 305 305 306 303
311 311 311 311 311 308 306 305 305 304 301 300 300 300 301 300 298 296 295 296 299 299 299 302 305 305 304 305 307 307 304 300 302 305 305 308 307 307 310 306 303 300 301 304 306 308 310 308 306 305 304 304 301 300
310 309 310 310 310 307 306 305 303 302 300 299 299 300 300 298 297 298 302 299 298 300 301 302 304 308 303 304 306 307 306 306 304 307 309 308 308 309 305 301 300 300 301 303 306 309 308 307 305 305 304 301 299 298
311 310 310 310 308 306 305 304 302 299 299 298 299 299 298 299 300 301 300 299 298 299 300 302 303 305 302 303 305 307 308 309 311 311 306 308 309 305 302 299 299 300 302 306 309 308 307 305 304 303 300 299 298 297
310 310 310 308 307 305 304 302 300 299 298 298 299 299 300 301 301 300 302 302 300 303 302 302 304 304 303 304 305 306 308 310 312 310 310 312 311 305 300 299 300 301 304 307 308 308 306 303 304 301 300 299 298 298
308 309 309 307 306 304 302 301 299 299 298 299 298 299 300 300 300 300 302 304 305 305 304 305 305 304 304 304 304 306 309 310 313 309 311 312 307 301 299 299 299 300 302 305 308 307 304 302 304 301 300 299 298 298
308 308 307 306 304 303 301 300 299 298 299 295 295 298 299 299 301 301 303 305 307 305 306 305 306 304 304 304 305 307 309 311 309 310 309 308 303 299 299 299 300 301 304 305 308 306 303 302 303 301 299 299 298 298
308 306 306 304 303 301 300 299 298 298 298 297 298 301 301 303 303 305 306 307 304 303 304 304 303 304 305 306 307 308 308 308 309 309 308 304 301 299 298 298 299 300 301 303 307 306 303 302 303 302 300 299 298 297
306 305 305 302 301 300 299 298 298 298 298 299 300 303 302 303 305 305 303 301 301 302 302 303 304 304 305 305 305 306 307 306 305 305 302 301 299 298 298 298 299 300 301 303 306 305 304 302 301 302 301 300 298 298
305 304 303 302 300 299 298 297 297 297 297 299 300 302 302 304 304 303 302 302 303 303 303 305 306 305 304 304 305 304 305 305 303 301 300 299 299 299 298 298 299 300 300 302 304 305 304 303 301 301 302 301 300 299
304 302 302 300 299 298 298 297 296 296 297 299 299 300 302 303 303 302 302 303 303 303 304 305 306 305 303 303 302 300 302 301 300 299 298 298 298 298 298 298 299 300 301 302 302 304 305 304 302 300 300 301 302 302
303 301 300 299 298 298 296 296 296 296 298 298 299 300 301 301 301 302 303 303 303 303 303 304 304 305 304 304 302 301 300 300 299 298 297 297 299 298 298 298 298 300 301 302 303 303 303 305 303 301 300 299 299 301
301 300 300 299 298 297 296 296 297 298 298 299 299 300 301 302 303 303 303 303 303 303 302 302 303 304 303 301 300 299 299 299 298 298 297 298 298 298 298 298 298 299 301 301 301 302 302 303 304 303 301 299 298 297
300 299 299 298 298 298 297 297 297 300 300 299 300 301 301 302 303 302 302 302 302 302 302 303 303 301 300 299 298 299 298 297 298 298 298 298 298 298 298 297 298 299 299 301 302 302 302 301 301 303 302 301 299 298
298 297 297 297 299 299 299 298 298 300 300 300 301 302 302 301 302 302 301 301 302 302 302 300 299 298 299 298 298 297 297 297 297 297 297 297 297 297 297 297 297 299 297 297 299 301 302 301 300 301 304 303 301 298
295 296 296 298 298 298 299 299 300 300 301 302 302 302 303 303 302 301 300 301 301 301 300 298 297 297 297 297 296 296 296 296 297 297 296 296 296 296 294 295 295 296 296 295 297 298 300 301 302 300 301 304 303 300
295 297 297 297 298 298 300 299 300 300 301 302 302 303 303 303 301 299 301 300 300 298 298 298 297 297 297 296 295 295 295 296 296 296 296 295 295 294 293 293 294 294 293 294 295 296 298 300 302 302 301 302 303 301
296 297 297 298 298 299 299 300 300 300 302 303 303 303 303 302 300 301 303 301 299 297 298 298 297 297 296 295 295 295 294 295 296 295 293 294 294 293 292 292 292 292 292 291 292 293 294 298 300 302 302 302 301 301
297 297 297 298 298 299 299 300 301 301 301 302 303 303 303 301 303 303 303 302 298 297 297 297 297 297 297 297 296 294 291 295 296 294 292 292 292 293 292 292 292 291 290 291 291 292 292 293 295 298 300 301 301 301
298 297 298 299 299 299 300 301 301 301 301 301 302 303 302 304 303 304 304 301 298 298 297 297 297 297 296 296 295 293 291 292 294 293 291 291 291 291 291 291 291 291 289 290 290 291 292 292 294 296 299 300 301 300
298 298 297 298 298 298 300 300 300 301 301 301 303 303 304 303 303 304 298 299 298 297 297 296 296 296 295 293 292 291 291 291 292 291 290 289 289 288 289 289 289 288 288 289 289 290 290 291 291 294 296 298 299 300
297 297 298 298 298 299 301 301 301 301 301 301 302 302 302 303 305 299 298 297 297 296 296 295 295 294 293 292 291 290 290 290 289 289 289 289 288 288 287 288 287 288 288 288 288 289 290 291 291 292 294 297 299 300
297 297 297 299 298 298 299 300 301 300 301 301 302 303 301 296 294 296 296 296 296 295 295 294 292 291 291 290 290 290 290 290 290 290 291 290 289 288 287 287 287 287 287 288 288 288 289 290 291 292 293 294 297 299
296 297 298 298 298 299 299 300 300 298 298 298 297 296 295 293 293 294 296 295 295 294 293 292 291 291 291 291 290 289 288 288 289 289 289 288 287 286 286 286 286 286 287 287 288 288 288 289 289 290 292 294 296 298
296 297 298 298 299 299 298 297 296 296 296 296 296 298 295 293 292 293 295 295 294 294 292 292 292 292 291 291 290 289 288 287 287 287 287 285 285 285 285 286 285 286 286 286 287 287 287 288 288 289 291 292 294 295
296 297 298 298 299 297 297 298 297 296 295 296 295 295 295 295 294 292 292 293 293 292 292 292 292 292 291 291 290 289 288 287 286 286 286 285 285 285 285 285 285 285 285 286 286 286 286 287 287 288 290 291 293 294
296 296 297 297 298 298 298 298 298 296 295 295 294 293 292 293 293 291 291 292 293 293 292 292 292 291 289 288 287 286 286 286 286 285 285 285 285 284 284 284 284 284 284 284 285 285 285 286 287 288 289 291 292 293
Wind_Speed
27 30 33 36 35 34 30 30 28 31 27 22 15 16 14 12 9 9 8 7 4 7 15 7 7 11 8 7 5 6 5 4 5 2 2 2 3 3 6 7 8 4 3 4 5 6 5 4 5 9 18 26 28 28
22 23 25 29 35 34 30 30 29 29 29 25 14 15 15 13 12 8 5 8 8 9 11 17 17 18 17 12 7 3 4 4 4 3 1 3 3 4 6 4 2 4 3 5 4 5 17 23 17 25 25 25 27 28
21 22 21 24 27 34 34 32 30 30 31 28 21 15 16 15 13 9 7 9 7 10 14 7 3 5 5 7 11 5 2 2 1 3 4 2 4 2 3 3 7 5 12 6 10 5 14 23 26 20 23 25 27 28
26 24 21 22 24 25 33 35 31 28 30 28 27 17 16 16 15 11 10 7 7 5 5 1 7 6 5 8 10 11 8 3 4 5 4 3 3 3 4 7 11 11 8 8 14 13 22 14 17 21 27 24 30 32
24 23 25 27 28 25 27 36 30 24 26 28 25 19 18 17 15 12 10 12 12 5 6 10 13 6 6 7 11 13 15 13 9 4 4 4 3 3 5 4 6 6 6 3 4 27 21 25 32 29 26 29 35 37
26 24 24 27 28 25 26 32 28 24 26 25 22 18 21 17 15 5 4 6 12 13 4 3 4 4 6 6 9 12 12 12 9 5 5 5 8 5 3 3 6 21 27 22 9 26 35 34 25 27 30 37 39 37
27 26 26 27 29 26 26 28 30 25 23 19 16 13 20 17 16 7 3 3 10 10 3 5 3 3 4 4 4 4 10 5 8 5 5 7 5 8 2 2 20 27 29 27 23 23 26 23 31 36 37 39 34 36
26 26 26 25 23 23 23 25 29 24 18 14 14 18 16 17 11 9 13 14 9 5 4 3 4 4 1 2 3 6 6 8 7 4 4 4 1 3 3 18 27 31 31 19 25 29 30 29 35 35 37 34 34 30
27 29 28 26 23 22 19 24 26 19 11 11 14 15 13 7 6 5 6 10 12 6 3 3 2 1 1 4 3 4 6 3 7 3 2 2 1 2 7 20 28 30 20 27 29 28 27 30 33 36 32 34 29 28
27 27 25 24 22 19 15 26 23 14 13 15 13 6 5 6 12 14 5 10 9 6 6 4 6 3 4 3 3 1 4 2 3 1 4 2 2 7 16 24 24 23 21 23 26 30 32 33 36 36 32 30 27 25
24 24 23 21 19 16 20 24 21 15 19 16 8 6 6 15 13 5 5 6 7 4 6 6 8 5 1 4 3 3 2 2 2 2 1 3 1 13 28 31 28 21 20 21 22 24 28 30 34 35 35 30 27 25
22 20 18 18 17 17 25 24 20 23 15 11 9 9 10 5 3 4 4 5 4 3 8 5 5 5 2 2 3 4 3 3 1 1 2 2 5 21 31 32 29 24 23 22 23 24 28 30 30 36 30 27 28 24
19 18 17 19 18 21 22 24 20 23 15 18 5 4 3 6 6 6 7 4 4 6 8 8 4 3 4 4 5 2 2 2 3 0 2 3 14 23 28 30 29 24 22 21 22 23 27 29 29 36 32 32 30 28
17 17 18 20 20 23 25 24 25 24 16 5 7 6 5 6 6 5 5 4 6 6 8 7 3 4 2 4 2 3 2 2 2 2 2 6 18 25 27 27 25 26 23 21 21 22 25 27 30 35 35 34 32 32
14 17 22 20 25 28 24 26 23 24 6 6 6 5 8 7 3 8 7 9 7 6 6 4 3 4 1 0 1 3 3 1 1 1 3 12 19 22 24 26 25 24 22 20 20 21 25 26 29 32 37 36 35 35
16 18 22 27 30 26 25 25 25 13 6 4 5 4 4 8 7 10 9 9 6 6 5 2 2 2 1 1 2 2 2 3 1 2 7 12 16 20 23 23 22 21 19 17 17 19 22 25 28 29 34 38 37 37
28 15 32 35 29 30 28 23 16 6 5 4 6 9 6 6 11 11 9 7 7 6 3 2 4 2 3 2 2 2 1 1 2 4 6 9 14 17 20 22 22 21 19 18 19 18 19 22 25 27 31 34 40 42
26 27 40 35 36 30 23 8 6 6 5 9 4 8 8 4 9 10 7 7 4 4 4 1 4 4 3 3 3 3 3 1 2 4 6 9 11 13 15 19 21 22 20 16 15 16 17 20 24 27 29 30 36 41
29 39 39 35 34 17 6 7 5 4 8 4 7 6 7 7 5 8 7 5 4 4 6 4 2 2 3 2 6 5 2 1 3 5 6 7 10 12 14 15 16 18 22 19 17 18 16 16 18 21 23 26 28 34
32 38 34 34 28 5 5 4 6 3 5 7 6 11 8 8 9 8 7 7 7 5 3 2 1 2 5 8 7 5 1 1 3 4 6 8 11 12 13 14 16 15 17 21 20 19 17 16 17 18 22 22 22 26
39 35 32 31 10 5 3 6 5 5 5 6 11 13 7 10 9 7 6 6 4 2 3 3 7 8 9 8 6 4 1 2 2 3 7 9 10 11 12 13 13 12 14 18 23 22 21 20 18 18 19 20 18 21
30 31 23 13 3 3 2 5 3 6 5 5 14 10 7 7 7 6 7 4 2 3 4 10 12 11 10 7 4 4 2 2 2 2 7 8 9 12 13 14 15 15 14 16 19 21 22 20 18 17 16 17 18 19
33 24 7 4 3 2 3 7 4 6 4 10 12 7 4 5 6 9 4 3 3 5 10 12 12 10 9 8 5 3 2 2 2 4 6 7 8 10 11 12 14 15 16 17 17 18 20 19 18 18 18 16 16 17
21 5 3 3 3 3 7 5 4 6 4 7 7 5 6 5 9 5 3 6 7 12 13 14 14 13 10 8 6 4 1 2 2 3 6 7 8 9 11 11 12 14 15 16 17 19 19 20 18 19 19 19 16 16
4 4 4 3 4 4 5 5 4 4 5 6 9 4 4 6 4 5 4 8 14 16 16 15 14 12 11 10 7 4 2 4 3 2 5 7 7 8 9 11 11 14 16 17 19 20 20 20 20 19 18 17 16 14
2 4 6 6 5 4 5 4 7 8 5 6 6 7 6 4 5 4 4 14 18 20 20 18 16 14 12 10 8 5 3 3 3 3 4 6 8 9 10 12 13 14 18 17 17 18 19 19 19 20 18 16 14 10
2 3 4 2 5 4 2 3 5 6 6 5 5 5 5 4 5 3 4 9 16 18 18 16 15 15 14 11 8 5 4 4 4 4 3 4 7 9 9 10 12 16 17 17 18 17 18 18 17 17 18 15 14 10
1 2 4 9 6 7 3 5 5 7 6 4 8 7 5 3 2 4 4 11 17 19 18 16 14 14 13 11 8 6 5 5 4 4 3 4 5 8 9 9 10 13 15 16 19 18 20 18 17 17 15 15 14 10
3 5 4 5 6 5 4 4 5 2 1 7 6 3 3 4 3 5 13 18 20 21 21 20 18 15 13 11 9 8 7 6 5 5 4 3 3 6 9 9 10 12 13 13 16 18 18 18 19 18 17 15 13 11
4 7 4 6 4 6 4 2 3 4 4 5 5 6 6 6 5 11 16 19 18 17 16 16 16 15 13 12 11 9 8 7 6 5 3 4 5 6 8 9 10 11 13 13 14 15 18 16 16 16 17 16 16 11
3 6 3 3 2 1 2 4 7 7 4 6 6 6 9 8 9 11 12 13 14 15 17 17 15 13 13 12 11 9 8 6 5 5 5 5 5 6 7 9 10 11 12 13 14 15 17 17 18 18 18 18 17 15
6 5 3 4 3 3 3 3 3 3 3 4 4 5 9 6 5 6 12 11 13 16 16 15 14 13 12 11 10 9 9 8 5 4 4 4 4 5 7 8 9 10 11 12 12 14 16 17 17 18 19 18 17 15
3 3 1 0 3 5 6 5 4 4 3 3 4 4 4 4 4 4 13 14 11 13 14 13 12 12 13 12 12 11 9 5 3 3 4 4 6 6 7 7 8 9 10 11 12 12 14 15 16 17 17 17 16 15
Wind_Direction
278 271 264 261 267 271 270 256 255 262 257 251 269 276 284 287 301 315 290 298 252 268 284 260 263 272 267 261 285 359 272 187 253 267 325 317 286 352 272 308 295 287 278 209 223 238 265 66 311 292 316 312 310 305
287 284 274 263 265 271 273 255 253 259 256 253 244 259 277 277 280 298 282 286 282 260 267 285 272 258 243 242 289 256 308 297 341 307 306 303 307 304 346 296 258 283 327 292 263 284 313 315 335 327 317 289 299 306
288 292 290 278 267 266 267 260 256 254 262 259 234 235 270 271 277 274 260 260 285 288 300 266 276 242 240 237 223 253 193 277 255 326 314 320 272 260 284 268 303 301 309 261 304 261 329 327 315 295 294 303 306 308
278 278 287 291 284 271 264 261 261 255 261 261 244 226 262 271 273 269 250 253 242 272 283 247 282 260 252 231 225 226 240 291 290 283 281 262 246 243 281 297 299 286 315 298 284 293 327 300 310 307 308 310 314 307
272 279 280 283 282 272 267 262 260 262 256 263 260 230 257 266 272 268 253 246 232 227 305 298 287 262 218 229 229 229 233 240 253 261 249 253 254 294 248 283 268 12 8 308 287 298 288 280 291 303 310 312 314 318
273 276 281 282 277 269 263 266 258 256 256 266 257 233 247 261 270 255 280 241 207 201 279 291 306 236 216 241 243 235 226 220 225 219 252 261 251 194 267 269 65 346 329 315 278 284 284 289 313 314 318 315 314 312
276 278 279 280 271 262 259 262 252 252 264 265 252 248 236 264 262 174 248 231 188 187 246 279 247 202 235 263 210 188 184 193 211 232 242 255 262 190 259 273 336 332 321 314 310 323 320 324 317 318 315 315 315 313
275 275 276 278 277 256 254 257 246 250 266 257 228 240 247 267 249 231 243 225 195 199 229 269 275 234 227 282 226 183 172 198 214 240 237 234 141 223 253 341 329 324 324 319 324 325 317 317 320 317 318 323 324 322
273 275 275 273 269 247 242 249 237 244 251 218 223 233 264 230 210 217 179 179 187 215 251 233 255 234 283 253 247 216 185 199 199 227 221 207 184 54 339 323 323 323 316 307 320 329 330 326 322 320 332 330 332 326
273 273 272 269 252 235 228 235 226 218 205 208 220 221 208 201 145 144 127 164 207 220 221 246 247 260 297 309 243 267 226 265 235 92 99 215 114 31 357 335 327 324 326 333 337 340 340 340 334 334 333 340 334 331
270 270 270 258 230 207 224 218 203 190 192 199 202 196 178 152 156 168 199 206 191 215 208 230 239 281 234 286 317 4 323 267 260 110 250 187 106 356 342 339 347 345 347 344 338 343 344 340 336 337 335 338 342 340
268 265 262 231 206 203 213 205 201 189 186 184 157 127 146 166 185 216 205 177 204 228 184 203 212 223 244 217 219 225 241 213 285 30 202 154 27 349 342 343 344 349 350 346 345 351 349 348 348 346 346 348 353 349
265 258 236 207 186 206 202 194 196 188 167 127 109 160 175 177 222 218 193 185 203 187 174 185 186 206 183 215 257 261 246 280 307 299 56 61 354 340 342 345 347 354 0 352 355 355 355 354 354 357 355 4 1 5
258 236 210 184 189 194 182 188 177 182 169 150 170 185 222 185 228 199 212 162 130 154 161 187 183 216 149 202 322 276 24 280 244 184 71 20 345 337 343 345 347 356 353 349 356 355 1 2 358 2 10 11 6 13
230 205 181 174 185 178 183 172 180 178 150 175 196 210 213 234 205 181 140 132 133 144 151 157 154 207 79 25 254 272 225 175 225 357 349 341 335 334 340 349 349 360 358 349 353 358 360 5 4 3 15 21 18 19
195 165 182 179 176 177 167 174 174 161 162 204 223 249 223 208 162 166 168 137 144 144 146 166 145 159 130 234 204 184 224 218 120 326 333 333 334 337 341 351 354 2 1 355 353 358 2 5 5 9 16 25 26 26
172 171 177 173 169 169 174 162 157 161 189 216 228 230 238 228 175 164 169 143 158 189 180 182 191 167 138 171 195 204 228 97 298 335 340 336 333 334 341 356 6 6 10 10 355 0 4 2 3 10 13 14 28 32
180 174 173 167 168 167 159 145 146 167 212 225 231 201 194 194 165 155 151 154 175 190 181 178 145 195 203 191 197 176 157 254 356 352 337 336 337 339 344 349 2 11 13 12 7 7 12 5 5 6 6 8 14 24
172 169 174 170 167 137 130 164 163 201 213 188 217 191 176 153 128 144 144 149 153 158 140 178 190 199 181 177 142 150 160 5 339 338 334 343 346 343 343 348 356 2 15 17 14 14 10 8 7 2 3 7 9 13
167 170 169 168 158 116 116 131 165 209 182 194 200 176 171 153 145 136 132 142 153 159 184 199 146 120 154 146 154 151 134 6 350 356 358 353 349 348 347 348 352 357 359 16 22 22 20 14 13 12 359 5 9 8
160 165 168 167 139 112 127 148 169 188 167 187 168 161 146 148 151 156 153 158 182 201 159 153 142 136 138 140 141 140 119 38 19 18 1 354 357 356 357 358 357 2 358 8 15 16 18 14 3 11 7 360 6 11
154 170 158 155 95 102 137 176 165 155 174 159 164 169 157 169 166 166 154 184 196 170 168 160 153 148 148 151 143 128 115 46 40 13 13 4 2 3 6 6 8 10 8 12 14 13 12 9 16 11 6 8 6 6
156 147 107 104 118 135 148 151 161 172 173 173 162 158 158 162 156 153 187 179 166 167 155 154 156 152 151 151 146 135 107 79 58 34 13 12 11 8 11 12 12 11 9 13 16 12 13 13 18 20 21 25 19 12
142 102 122 140 154 150 154 174 179 169 153 177 183 170 160 139 156 208 198 172 163 159 158 158 156 154 156 156 156 149 108 118 118 46 26 26 21 13 12 14 17 15 12 8 11 12 9 12 14 17 21 29 39 20
129 153 149 167 185 160 161 150 186 198 172 175 181 139 148 158 181 198 213 168 172 172 169 168 170 170 165 159 157 154 101 129 135 73 33 28 25 21 17 17 18 13 14 10 12 10 7 9 10 15 18 23 35 39
147 168 193 179 155 178 166 166 185 190 167 174 182 135 157 170 182 222 193 181 177 176 175 173 169 164 160 159 153 145 126 134 130 102 53 37 31 26 16 12 9 3 11 11 7 7 6 6 12 12 14 20 25 40
141 179 183 181 152 165 162 204 188 185 193 184 160 163 173 190 211 124 131 155 167 169 166 164 164 162 156 151 146 134 125 119 132 145 103 50 34 26 19 12 5 359 7 8 10 9 5 5 4 9 8 9 14 21
113 175 173 169 173 191 213 192 192 192 204 156 171 191 188 190 111 122 138 152 150 151 150 151 153 153 150 145 136 127 122 125 127 112 74 42 34 24 21 14 7 12 14 5 11 11 11 12 8 6 7 6 5 8
183 167 144 183 193 210 223 217 206 157 55 194 196 143 110 79 86 117 136 145 147 147 147 147 147 145 137 131 121 114 114 118 124 115 105 74 32 359 10 12 11 10 11 8 1 8 10 12 14 13 8 2 359 359
171 178 201 200 209 211 193 259 131 89 64 88 103 109 96 90 84 126 143 150 151 152 155 155 151 152 150 145 136 120 106 103 109 113 101 65 28 8 7 8 10 10 9 7 3 2 4 12 9 12 11 7 2 5
166 192 215 214 234 168 140 112 105 111 107 75 76 120 127 122 109 117 146 155 155 155 153 153 154 158 156 154 149 139 127 112 111 105 90 57 36 19 13 13 10 8 6 5 4 3 3 4 4 7 6 7 3 357
197 204 215 205 168 144 145 163 111 89 106 135 123 138 133 122 111 148 150 154 159 159 161 158 157 157 156 154 153 151 155 127 106 90 74 54 34 23 16 14 7 4 4 5 4 3 2 2 0 0 0 1 1 358
154 192 225 39 154 186 191 169 140 109 93 91 92 105 80 91 100 153 166 152 166 168 163 160 159 159 152 146 142 140 140 138 104 65 43 26 17 16 15 9 7 4 4 5 4 3 3 1 359 358 357 358 359 1